Location: Asheville, NC
(35.6000°N, 82.5500°W)
Time: 13:48:19
(UTC-04:00)

AO-7 - Pass Details

Date: 14 March 2018
Orbit: 1440 x 1459 km, 101.7° (Epoch: 19 June)

Event Time Altitude Azimuth Distance (km) Brightness Sun altitude
Rises 03:15:25 0° 39° (NE) 4,539 ? -50.2°
Reaches altitude 10° 03:20:30 10° 66° (ENE) 3,553 ? -49.5°
Maximum altitude 03:23:52 13° 91° (E) 3,325 ? -49.0°
Enters shadow 03:26:59 10° 114° (ESE) 3,515 ? -48.6°
